Vertical_Velocity
0 -2 -3 2 -1 -2 -1 -0 -2 -2 -2 -0 -2 -1 -1 1 1 -1 -3 -3 -1 2 -15 0 -2 2 -1 1 4 -2 2 4 4 4 3 -3 2 -2 2 -0 -2 -2 0 -1 2 3 -2 3 -1 4 8 -1 4 0
-0 1 -3 -3 -3 -3 -1 -2 1 -0 5 -2 -1 0 -4 -5 6 7 -2 -2 2 7 -16 3 -7 4 0 4 16 5 0 -1 -3 3 1 1 1 2 0 -1 0 1 -1 2 -0 -3 3 3 3 1 -2 -1 -1 -0
1 -0 -1 -2 -3 0 -1 -1 -3 -3 -3 1 -3 -1 3 -0 -2 9 2 10 8 8 -18 3 1 -2 -1 2 7 8 -0 -3 -1 -3 0 -1 3 1 1 -4 2 0 -0 1 2 0 -3 -1 -0 1 3 4 -1 2
-2 -2 2 0 -2 -0 1 -1 -2 -3 -1 1 -2 -1 1 1 2 12 8 -4 10 5 5 -3 -1 1 1 1 4 4 5 5 7 2 1 0 1 2 0 3 3 3 2 -1 -3 -1 -4 8 3 3 1 2 1 2
1 -1 1 -1 -1 -1 -1 -1 -1 0 0 -4 -3 -5 0 -3 -0 4 5 1 4 4 2 -1 -3 -2 -3 -1 2 2 1 4 2 4 2 -1 1 1 0 2 1 3 4 3 4 4 5 2 3 -2 -1 -1 1 -1
-2 -1 -3 -1 -1 1 1 -1 -1 -1 2 -1 -1 -8 1 4 5 -2 0 -3 9 9 3 1 0 -2 -1 -2 4 2 1 2 3 3 -1 -1 -3 -0 2 1 6 2 2 2 3 -0 2 0 4 1 -4 -0 0 1
2 2 -1 -2 -1 -0 1 0 -0 0 1 -3 -1 -1 -1 7 9 -0 0 -0 -3 2 -0 -1 -0 -3 -3 -1 -0 -2 -0 3 3 1 1 1 0 1 1 1 1 -0 2 3 3 -4 1 1 -4 -1 1 1 1 2
0 -2 -3 -2 3 -0 -1 -2 -0 -2 2 -3 -1 -1 2 -1 -2 5 2 13 10 5 -1 2 -2 1 -1 -0 1 -2 0 -1 2 2 -1 1 2 1 -2 3 -0 -0 -2 2 -0 2 1 -1 1 2 2 -1 -0 -0
-0 -3 -4 -2 2 2 -2 -1 -0 -0 -3 -7 0 -2 2 3 2 0 2 5 2 5 1 2 1 1 -2 -1 -2 -1 -2 1 -2 1 1 2 0 0 4 2 1 1 1 -3 -3 1 0 0 -1 -0 0 2 0 -2
-2 -1 -3 2 -0 -1 -3 -1 -2 -1 -2 -2 -8 -1 -1 -1 -0 -1 -1 1 -1 -2 1 1 -2 1 -3 -1 -1 2 -1 0 1 4 -1 -2 3 -0 -0 1 2 1 1 -0 -3 -7 -5 -0 -1 -2 -1 2 2 -1
-2 -1 -1 0 -1 -2 -3 -1 -1 -4 -7 -3 0 -3 -3 1 -0 1 2 1 0 1 1 -0 1 1 -2 2 1 0 1 0 1 5 5 1 2 1 -0 1 1 1 0 1 3 1 2 2 -0 -1 -2 1 1 2
-3 -2 0 -1 1 -1 -6 -3 2 -2 -3 7 8 5 3 -0 -1 2 0 1 2 1 -1 1 2 1 0 -2 3 1 1 1 2 1 2 1 4 1 -1 -1 -0 -0 -0 -1 1 1 0 1 2 0 -0 1 0 0
-2 1 4 -2 -2 1 -1 -1 -3 -1 -5 2 3 -1 -1 0 1 2 -0 1 1 -0 -0 -0 1 1 -1 -1 1 2 2 2 2 0 2 3 2 -0 -0 -0 1 2 2 2 1 2 2 1 0 0 1 2 2 1
-2 2 2 -2 0 0 -0 -1 -2 -3 -5 2 1 -1 2 1 -0 -0 1 1 1 -0 0 -0 0 2 -1 2 1 3 2 3 1 1 3 2 1 0 1 1 0 0 1 1 0 -0 0 0 1 2 1 2 3 0
-1 3 -1 -6 4 4 1 -0 0 1 -2 2 1 -1 1 1 -2 -1 -1 -1 0 1 1 -0 -0 1 0 1 1 1 2 1 2 3 2 3 0 0 -0 -1 -1 -0 -0 0 1 1 1 1 1 1 0 -0 1 2
2 0 -3 -5 -1 -0 -2 -3 -3 -1 3 1 1 0 0 2 0 1 2 5 2 4 0 -0 -0 1 -0 1 2 1 2 1 5 2 3 2 -0 -1 -0 0 0 0 -0 -0 -0 0 1 0 -1 0 2 1 1 -0
-3 2 -1 -2 -1 -3 -4 -5 -2 0 1 4 3 0 1 3 4 1 0 -1 -1 1 1 1 2 -1 2 1 1 1 3 4 4 2 1 -0 -0 -0 0 1 -0 -0 -0 -0 1 1 1 1 1 2 -1 -1 -0 1
-2 -1 -1 -1 -0 -6 -4 -3 1 2 0 -1 -0 1 -1 -1 0 0 -0 -0 -0 1 1 3 2 -1 1 1 2 3 1 2 -0 0 -0 -0 -0 0 1 1 1 0 -0 -0 -0 0 1 1 0 -1 0 0 0 -0
1 -2 -1 1 -0 -3 -3 -1 -2 0 2 0 2 1 -0 -1 -0 2 2 1 1 3 1 -3 -4 1 2 1 2 1 1 1 2 1 -0 -0 -0 -0 -0 0 1 1 0 0 -0 -1 -2 -2 -2 -1 -0 -0 -0 -0
1 -2 -1 -0 1 -2 2 -0 -1 -1 0 1 -0 -0 -0 -1 -1 -0 -1 -3 -3 -2 -7 -2 2 2 3 1 1 2 2 2 2 3 4 1 -0 0 -0 -0 -0 0 -0 -0 0 2 0 1 1 -0 -1 -1 -1 -1
-4 -4 -3 -2 -4 -4 -1 -0 -0 -1 -0 -1 0 0 0 -1 -2 -3 -2 -1 -6 -1 0 1 1 1 1 1 1 1 2 1 0 1 1 0 -1 -0 -1 -0 0 -0 -1 -1 -1 -1 -1 -1 -1 -1 -0 -0 0 1
-2 -0 -1 1 -2 -1 0 0 -0 0 -1 -0 -0 -0 -1 -1 -0 -1 1 -7 -0 3 1 2 0 1 1 0 -0 -0 0 0 0 1 1 0 -1 -1 -1 -1 -1 0 -0 -1 -1 -1 -1 -0 1 -3 -1 -1 -0 0
0 -2 -2 -1 -1 1 1 -1 0 -1 -1 1 -0 -2 -1 -0 0 1 -3 0 -0 0 0 -1 -0 -0 -0 -0 -0 -0 -1 -1 -1 -0 -0 0 1 -0 0 0 1 0 0 -1 -1 -1 -1 -0 -1 -1 -1 -1 -1 -2
3 -2 -5 -4 -1 -1 0 -2 -0 -1 -0 -2 -1 -0 -0 1 -0 -3 0 1 -1 0 1 1 -0 0 -0 -0 -0 -1 -1 -1 0 0 -0 0 0 1 1 1 1 1 1 0 -0 -0 -1 -1 -1 -1 -1 -2 -1 -1
-1 -2 -3 -2 -1 -2 -2 -1 -1 -3 0 0 -1 -0 0 -0 -1 -1 0 1 -0 -0 -0 -0 0 0 0 2 1 0 -0 -1 -2 -2 0 0 0 0 -0 0 0 0 -0 -0 -1 -1 -1 -1 -0 -0 -0 0 -2 -3
-6 -2 -2 0 -1 -1 1 -0 -0 0 -0 -0 0 -0 -1 -1 -1 0 0 -0 -1 -1 -0 -0 -0 -0 0 0 -1 -0 -0 -0 -0 -0 -0 0 0 -1 -1 -1 -1 -1 -1 -1 -1 -2 -2 -0 -1 -1 -2 0 0 2
-2 -0 -1 -1 1 -0 -1 -1 -1 -1 -0 -0 0 -1 -1 -1 -0 -1 -1 -1 -1 0 0 -0 -1 -0 -0 -0 1 0 0 0 -0 -0 -0 -0 -0 0 0 -1 -0 -0 -0 1 0 -0 -2 -2 -2 -1 -2 -0 1 -0
-1 -1 -1 0 -1 -1 -2 -0 -0 -0 0 -1 0 -0 -1 -1 0 -0 -0 -0 -0 -1 -1 -0 0 0 -1 -1 -1 -1 1 0 -1 -1 -1 -1 -1 -1 -0 -0 0 1 -2 -0 -0 -1 1 -1 -3 -2 -1 1 -2 0
-0 0 0 -1 -0 -1 -0 -0 0 -0 -1 -1 0 0 -1 -1 -1 -1 -1 -1 -1 -1 -0 0 0 0 -0 -1 -1 -3 -1 0 -1 -1 -1 -2 -3 2 -0 1 1 2 2 -4 1 8 2 -1 12 23 16 -1 -1 -1
0 -0 -1 -0 -1 0 0 0 0 -1 -1 -1 -1 -1 -1 -0 -0 -1 -1 -1 -1 -0 -1 -1 -1 -2 -5 -5 -3 1 2 -1 0 0 -1 -1 -2 -1 -1 -0 -0 2 0 -1 -2 -3 2 1 -4 -1 -0 0 1 0
-0 -0 -1 -0 0 1 0 -0 -0 -1 -1 -0 -0 -1 0 -0 -1 -2 -2 -1 -0 -0 -1 0 2 3 -1 -0 -2 -5 -4 0 -0 -0 -0 -2 0 -1 -3 -3 2 -2 -1 -1 -1 -1 -1 -0 1 -2 -1 -1 2 2
0 -0 -1 -0 1 1 -0 -0 -0 -0 0 -0 -0 0 0 -1 -2 -1 -0 0 1 0 1 -2 -2 -2 2 0 2 3 -1 -2 -1 -1 0 2 -1 -3 -8 5 1 1 -1 -1 -1 -0 1 0 -1 0 -1 -1 -0 -0
-1 -0 0 -0 -0 1 0 -0 0 -0 -0 0 0 -0 -0 -1 -1 -1 -0 -1 -1 -1 -1 -0 1 1 0 -1 -2 -0 -0 -1 -1 -0 3 5 4 8 17 -4 5 3 1 0 1 1 -0 0 -1 -0 -0 -1 -1 -1
Height
1499 1497 1494 1491 1488 1486 1483 1481 1478 1476 1473 1471 1470 1468 1467 1465 1462 1462 1460 1457 1457 1451 1444 1442 1442 1440 1439 1437 1434 1433 1434 1430 1432 1428 1421 1412 1413 1407 1407 1398 1402 1400 1403 1403 1403 1397 1394 1387 1381 1383 1392 1390 1388 1385
1499 1495 1492 1489 1486 1484 1480 1479 1477 1475 1471 1469 1467 1464 1461 1461 1460 1456 1455 1453 1452 1449 1441 1438 1435 1433 1433 1432 1431 1429 1428 1426 1425 1423 1421 1416 1411 1410 1404 1396 1404 1401 1396 1394 1397 1391 1391 1392 1393 1393 1393 1392 1389 1387
1496 1492 1489 1486 1482 1481 1479 1475 1472 1471 1469 1465 1463 1461 1458 1455 1454 1453 1450 1448 1445 1440 1434 1431 1427 1427 1426 1424 1426 1427 1424 1423 1420 1421 1419 1415 1409 1405 1399 1397 1393 1398 1401 1399 1396 1389 1392 1393 1393 1394 1393 1392 1390 1389
1494 1490 1486 1483 1480 1476 1474 1471 1467 1464 1460 1458 1456 1455 1453 1451 1448 1447 1444 1443 1442 1438 1431 1425 1423 1421 1421 1421 1420 1419 1417 1416 1416 1416 1415 1410 1407 1405 1398 1398 1397 1398 1401 1396 1393 1391 1391 1392 1395 1393 1391 1390 1389 1388
1491 1488 1485 1482 1478 1474 1469 1465 1460 1457 1453 1450 1447 1446 1445 1444 1442 1440 1438 1436 1435 1437 1427 1422 1421 1415 1414 1414 1413 1411 1411 1412 1412 1412 1409 1405 1403 1406 1402 1403 1398 1402 1404 1396 1393 1405 1404 1396 1395 1392 1391 1388 1387 1386
1489 1485 1482 1479 1475 1471 1466 1463 1459 1454 1449 1445 1443 1440 1440 1438 1436 1435 1431 1427 1427 1428 1427 1420 1416 1411 1411 1410 1409 1407 1407 1408 1409 1405 1403 1401 1401 1403 1394 1388 1412 1412 1411 1410 1407 1404 1402 1399 1397 1394 1391 1389 1387 1385
1486 1483 1480 1476 1472 1467 1463 1457 1453 1448 1443 1440 1438 1437 1435 1433 1433 1432 1431 1427 1425 1425 1425 1420 1413 1410 1410 1409 1407 1406 1405 1405 1405 1403 1400 1400 1400 1399 1392 1390 1416 1413 1410 1408 1406 1403 1401 1400 1398 1394 1392 1388 1386 1384
1484 1481 1477 1474 1469 1463 1458 1452 1448 1444 1438 1435 1433 1431 1429 1426 1426 1426 1424 1423 1422 1423 1423 1419 1412 1411 1409 1409 1409 1407 1406 1404 1402 1399 1398 1398 1398 1397 1408 1419 1418 1415 1409 1407 1406 1406 1404 1401 1398 1395 1391 1387 1385 1382
1480 1478 1475 1471 1465 1459 1454 1448 1442 1437 1432 1430 1429 1424 1424 1421 1421 1421 1422 1421 1422 1425 1420 1417 1413 1408 1411 1410 1410 1408 1407 1402 1402 1398 1398 1399 1398 1417 1425 1422 1419 1416 1415 1411 1407 1404 1403 1400 1397 1394 1391 1387 1384 1382
1477 1473 1470 1467 1461 1455 1450 1446 1439 1432 1428 1425 1427 1423 1422 1421 1420 1422 1420 1421 1420 1420 1418 1416 1414 1411 1414 1411 1408 1409 1406 1402 1397 1401 1401 1400 1419 1426 1425 1423 1420 1417 1413 1409 1406 1402 1399 1398 1397 1394 1391 1388 1385 1383
1476 1472 1468 1463 1458 1452 1447 1443 1438 1430 1427 1425 1423 1422 1421 1420 1420 1420 1421 1421 1420 1418 1416 1414 1414 1412 1413 1412 1410 1410 1406 1403 1399 1403 1400 1402 1417 1426 1425 1422 1420 1417 1414 1411 1408 1406 1404 1401 1399 1395 1393 1390 1386 1383
1473 1469 1464 1459 1455 1450 1446 1442 1437 1434 1431 1429 1426 1420 1420 1420 1420 1421 1419 1421 1419 1412 1414 1413 1414 1414 1414 1413 1412 1410 1406 1405 1399 1407 1401 1408 1427 1428 1426 1423 1421 1418 1416 1413 1411 1408 1406 1403 1400 1398 1395 1391 1388 1385
1471 1467 1460 1456 1452 1447 1442 1438 1437 1433 1429 1425 1423 1421 1421 1421 1420 1418 1414 1413 1415 1413 1413 1413 1413 1414 1414 1414 1412 1410 1407 1404 1409 1405 1413 1424 1429 1429 1427 1425 1422 1420 1418 1416 1413 1410 1408 1405 1403 1400 1397 1394 1391 1388
1468 1464 1457 1453 1448 1443 1438 1434 1431 1430 1429 1427 1423 1420 1421 1417 1418 1415 1414 1413 1414 1413 1413 1413 1414 1414 1414 1412 1412 1408 1411 1410 1404 1403 1414 1428 1431 1430 1428 1426 1423 1422 1420 1418 1416 1414 1411 1409 1406 1403 1400 1397 1394 1391
1463 1458 1452 1449 1444 1438 1434 1430 1427 1426 1428 1425 1424 1420 1420 1418 1417 1416 1415 1415 1414 1413 1413 1413 1413 1414 1413 1412 1412 1412 1410 1406 1412 1413 1426 1431 1432 1431 1429 1427 1425 1423 1422 1420 1418 1416 1414 1412 1409 1406 1404 1401 1399 1396
1459 1454 1449 1445 1441 1436 1430 1427 1424 1424 1424 1424 1422 1421 1420 1418 1416 1418 1417 1415 1415 1414 1413 1412 1411 1411 1409 1410 1410 1409 1408 1406 1423 1430 1433 1433 1432 1432 1431 1429 1427 1425 1424 1422 1420 1418 1416 1414 1411 1409 1408 1405 1402 1400
1456 1452 1446 1440 1436 1432 1427 1424 1425 1425 1423 1423 1423 1425 1425 1424 1424 1424 1422 1419 1417 1416 1411 1410 1407 1403 1413 1410 1415 1425 1427 1434 1435 1435 1435 1434 1433 1432 1431 1430 1428 1427 1425 1423 1422 1420 1417 1415 1414 1411 1409 1407 1405 1403
1451 1447 1442 1437 1432 1428 1426 1425 1425 1426 1425 1428 1428 1430 1428 1428 1427 1426 1424 1421 1419 1417 1415 1414 1415 1412 1420 1414 1426 1438 1439 1439 1438 1437 1435 1435 1434 1433 1432 1430 1429 1427 1426 1424 1423 1421 1418 1416 1414 1412 1410 1409 1407 1405
1447 1442 1440 1436 1430 1428 1428 1426 1427 1429 1430 1432 1432 1431 1430 1431 1431 1429 1426 1422 1421 1420 1419 1422 1428 1432 1438 1443 1443 1442 1442 1441 1440 1439 1437 1436 1435 1433 1432 1431 1429 1428 1426 1425 1424 1422 1420 1418 1416 1414 1412 1410 1408 1406
1444 1440 1438 1433 1429 1429 1428 1428 1429 1431 1433 1435 1434 1432 1432 1433 1433 1430 1428 1424 1423 1424 1431 1438 1445 1447 1447 1447 1446 1445 1443 1442 1440 1439 1438 1437 1435 1434 1433 1431 1429 1428 1426 1425 1424 1424 1421 1419 1417 1415 1413 1411 1409 1407
1439 1437 1432 1431 1427 1431 1429 1429 1430 1433 1434 1436 1436 1434 1435 1435 1434 1433 1432 1430 1430 1442 1448 1451 1450 1449 1448 1447 1447 1446 1444 1443 1442 1441 1440 1437 1435 1434 1432 1431 1429 1427 1426 1424 1423 1422 1420 1419 1417 1415 1412 1410 1409 1407
1435 1432 1430 1429 1430 1432 1431 1432 1433 1433 1435 1437 1437 1436 1438 1440 1440 1440 1439 1438 1448 1453 1453 1453 1452 1451 1450 1449 1448 1447 1446 1444 1442 1441 1439 1437 1435 1433 1432 1430 1428 1427 1425 1424 1423 1422 1420 1419 1418 1415 1412 1410 1408 1407
1431 1430 1431 1431 1433 1433 1437 1435 1435 1435 1436 1439 1439 1441 1444 1445 1445 1444 1447 1452 1456 1457 1456 1455 1454 1453 1452 1451 1449 1448 1446 1444 1442 1440 1438 1435 1434 1432 1431 1429 1427 1426 1424 1423 1422 1421 1419 1418 1416 1414 1412 1410 1407 1406
1429 1428 1431 1433 1436 1437 1437 1437 1438 1439 1440 1442 1443 1445 1448 1448 1448 1449 1453 1457 1459 1457 1457 1456 1455 1455 1453 1452 1450 1448 1446 1444 1441 1439 1436 1434 1432 1430 1429 1427 1426 1425 1423 1422 1421 1419 1418 1417 1415 1413 1411 1408 1406 1404
1431 1436 1438 1439 1439 1439 1441 1442 1443 1443 1447 1449 1448 1449 1450 1450 1451 1454 1456 1459 1459 1458 1457 1457 1456 1455 1454 1452 1450 1448 1445 1443 1440 1437 1435 1433 1431 1429 1427 1426 1424 1423 1422 1421 1420 1418 1417 1415 1413 1411 1408 1406 1404 1402
1437 1442 1443 1443 1443 1441 1445 1446 1449 1451 1451 1451 1453 1453 1452 1452 1454 1456 1457 1458 1458 1458 1458 1457 1457 1455 1454 1451 1449 1447 1445 1442 1439 1436 1434 1432 1430 1428 1426 1425 1424 1422 1421 1420 1418 1416 1414 1412 1409 1407 1405 1403 1401 1398
1440 1444 1445 1445 1444 1444 1447 1449 1450 1451 1453 1454 1455 1454 1453 1456 1455 1456 1456 1457 1458 1458 1458 1458 1457 1455 1453 1451 1448 1446 1443 1440 1437 1435 1432 1430 1429 1427 1426 1424 1423 1422 1420 1418 1416 1413 1410 1407 1405 1402 1400 1397 1395 1393
1440 1443 1445 1445 1445 1446 1448 1450 1451 1453 1454 1455 1456 1456 1455 1453 1455 1455 1456 1457 1458 1459 1459 1458 1457 1455 1452 1449 1446 1443 1440 1438 1435 1433 1431 1430 1428 1426 1424 1422 1421 1419 1417 1414 1412 1409 1406 1403 1400 1397 1394 1390 1388 1386
1441 1441 1443 1446 1447 1447 1449 1450 1451 1452 1453 1454 1454 1454 1455 1454 1454 1454 1456 1457 1459 1459 1459 1458 1456 1453 1451 1447 1444 1441 1437 1435 1433 1431 1430 1428 1426 1424 1421 1419 1417 1415 1413 1410 1408 1405 1402 1399 1397 1395 1390 1384 1381 1378
1440 1441 1443 1446 1447 1450 1450 1450 1451 1452 1453 1453 1454 1454 1454 1454 1454 1455 1456 1458 1459 1458 1458 1456 1454 1451 1447 1444 1441 1438 1436 1433 1431 1429 1427 1424 1422 1420 1417 1415 1413 1410 1407 1403 1400 1397 1396 1392 1387 1384 1380 1377 1373 1370
1439 1441 1443 1445 1448 1449 1450 1451 1452 1453 1454 1454 1454 1455 1455 1455 1456 1456 1457 1458 1458 1457 1456 1454 1452 1449 1445 1442 1438 1434 1432 1431 1428 1427 1424 1421 1418 1415 1412 1409 1406 1402 1399 1396 1393 1390 1387 1383 1379 1375 1372 1369 1367 1365
1440 1441 1442 1446 1449 1450 1451 1452 1453 1454 1454 1455 1455 1455 1456 1456 1456 1456 1456 1456 1456 1455 1454 1451 1447 1444 1442 1438 1435 1432 1429 1427 1425 1423 1420 1417 1413 1410 1406 1403 1399 1396 1393 1390 1387 1383 1380 1376 1372 1369 1366 1363 1361 1359
1441 1442 1442 1444 1447 1450 1452 1453 1453 1454 1455 1455 1455 1455 1455 1456 1455 1456 1455 1454 1454 1452 1450 1447 1443 1441 1437 1434 1431 1429 1426 1424 1421 1418 1415 1412 1409 1407 1404 1399 1395 1391 1387 1383 1380 1377 1373 1370 1367 1364 1361 1358 1355 1352